owner,sensor,date,latitude,longitude,vertical_datum,wind_speed,wind_to_direction,wind_speed_of_gust,qcFlag 
TCOON,ioos:station:TCOON:006:1,2008-08-01T00:00:00Z,27.8217,-97.2040,0.0,8.4,145.0,9.6,'11111222,11111222,11111222' 
TCOON,ioos:station:TCOON:006:1,2008-08-01T02:00:00Z,27.8217,-97.2040,0.0,6.1,150.0,8.4,'11111222,11111222,11111222' 
TCOON,ioos:station:TCOON:006:1,2008-08-01T03:00:00Z,27.8217,-97.2040,0.0,5.9,157.0,8.6,'11111222,11111222,11111222' 
TCOON,ioos:station:TCOON:006:1,2008-08-01T04:00:00Z,27.8217,-97.2040,0.0,5.5,153.0,8.8,'11111222,11111222,11111222' 
TCOON,ioos:station:TCOON:006:1,2008-08-01T05:00:00Z,27.8217,-97.2040,0.0,6.7,158.0,8.2,'11111222,11111222,11111222' 
TCOON,ioos:station:TCOON:006:1,2008-08-01T06:00:00Z,27.8217,-97.2040,0.0,7.0,168.0,8.8,'11111222,11111222,11111222' 
TCOON,ioos:station:TCOON:006:1,2008-08-01T07:00:00Z,27.8217,-97.2040,0.0,7.6,165.0,8.6,'11111222,11111222,11111222' 
TCOON,ioos:station:TCOON:006:1,2008-08-01T08:00:00Z,27.8217,-97.2040,0.0,5.3,160.0,7.0,'11111222,11111222,11111222' 
TCOON,ioos:station:TCOON:006:1,2008-08-01T09:00:00Z,27.8217,-97.2040,0.0,5.4,164.0,6.8,'11111222,11111222,11111222' 
TCOON,ioos:station:TCOON:006:1,2008-08-01T10:00:00Z,27.8217,-97.2040,0.0,6.4,160.0,8.1,'11111222,11111222,11111222' 
TCOON,ioos:station:TCOON:006:1,2008-08-01T11:00:00Z,27.8217,-97.2040,0.0,5.1,160.0,6.1,'11111222,11111222,11111222' 
TCOON,ioos:station:TCOON:006:1,2008-08-01T12:00:00Z,27.8217,-97.2040,0.0,4.1,158.0,5.5,'11111222,11111222,11111222' 
TCOON,ioos:station:TCOON:006:1,2008-08-01T13:00:00Z,27.8217,-97.2040,0.0,4.9,152.0,5.8,'11111222,11111222,11111222' 
TCOON,ioos:station:TCOON:006:1,2008-08-01T14:00:00Z,27.8217,-97.2040,0.0,4.5,158.0,6.7,'11111222,11111222,11111222' 
TCOON,ioos:station:TCOON:006:1,2008-08-01T15:00:00Z,27.8217,-97.2040,0.0,5.1,159.0,6.8,'11111222,11111222,11111222' 
TCOON,ioos:station:TCOON:006:1,2008-08-01T16:00:00Z,27.8217,-97.2040,0.0,4.8,145.0,5.4,'11111222,11111222,11111222' 
TCOON,ioos:station:TCOON:006:1,2008-08-01T17:00:00Z,27.8217,-97.2040,0.0,5.1,150.0,6.1,'11111222,11111222,11111222' 
TCOON,ioos:station:TCOON:006:1,2008-08-01T18:00:00Z,27.8217,-97.2040,0.0,4.5,130.0,6.9,'11111222,11111222,11111222' 
TCOON,ioos:station:TCOON:006:1,2008-08-01T19:00:00Z,27.8217,-97.2040,0.0,5.0,131.0,6.6,'11111222,11111222,11111222' 
TCOON,ioos:station:TCOON:006:1,2008-08-01T20:00:00Z,27.8217,-97.2040,0.0,5.0,125.0,6.7,'11111222,11111222,11111222' 
TCOON,ioos:station:TCOON:006:1,2008-08-01T21:00:00Z,27.8217,-97.2040,0.0,5.3,119.0,7.8,'11111222,11111222,11111222' 
TCOON,ioos:station:TCOON:006:1,2008-08-01T22:00:00Z,27.8217,-97.2040,0.0,4.9,128.0,8.0,'11111222,11111222,11111222' 
TCOON,ioos:station:TCOON:006:1,2008-08-01T23:00:00Z,27.8217,-97.2040,0.0,5.1,122.0,6.9,'11111222,11111222,11111222' 
TCOON,ioos:station:TCOON:006:1,2008-08-02T00:00:00Z,27.8217,-97.2040,0.0,4.2,120.0,8.1,'11111222,11111222,11111222' 
TCOON,ioos:station:TCOON:006:1,2008-08-02T01:00:00Z,27.8217,-97.2040,0.0,4.6,126.0,8.3,'11111222,11111222,11111222' 
TCOON,ioos:station:TCOON:006:1,2008-08-02T02:00:00Z,27.8217,-97.2040,0.0,3.9,116.0,7.1,'11111222,11111222,11111222' 
TCOON,ioos:station:TCOON:006:1,2008-08-02T03:00:00Z,27.8217,-97.2040,0.0,4.0,127.0,7.0,'11111222,11111222,11111222' 
TCOON,ioos:station:TCOON:006:1,2008-08-02T04:00:00Z,27.8217,-97.2040,0.0,3.7,125.0,7.2,'11111222,11111222,11111222' 
TCOON,ioos:station:TCOON:006:1,2008-08-02T05:00:00Z,27.8217,-97.2040,0.0,5.6,142.0,8.1,'11111222,11111222,11111222' 
TCOON,ioos:station:TCOON:006:1,2008-08-02T06:00:00Z,27.8217,-97.2040,0.0,5.8,143.0,7.3,'11111222,11111222,11111222' 
TCOON,ioos:station:TCOON:006:1,2008-08-02T07:00:00Z,27.8217,-97.2040,0.0,4.8,142.0,6.6,'11111222,11111222,11111222' 
TCOON,ioos:station:TCOON:006:1,2008-08-02T08:00:00Z,27.8217,-97.2040,0.0,6.0,150.0,7.5,'11111222,11111222,11111222' 
TCOON,ioos:station:TCOON:006:1,2008-08-02T09:00:00Z,27.8217,-97.2040,0.0,6.3,158.0,7.7,'11111222,11111222,11111222' 
TCOON,ioos:station:TCOON:006:1,2008-08-02T10:00:00Z,27.8217,-97.2040,0.0,5.8,168.0,7.2,'11111222,11111222,11111222' 
TCOON,ioos:station:TCOON:006:1,2008-08-02T11:00:00Z,27.8217,-97.2040,0.0,5.3,167.0,6.1,'11111222,11111222,11111222' 
TCOON,ioos:station:TCOON:006:1,2008-08-02T12:00:00Z,27.8217,-97.2040,0.0,6.0,181.0,7.2,'11111222,11111222,11111222' 
TCOON,ioos:station:TCOON:006:1,2008-08-02T13:00:00Z,27.8217,-97.2040,0.0,5.4,179.0,6.7,'11111222,11111222,11111222' 
TCOON,ioos:station:TCOON:006:1,2008-08-02T14:00:00Z,27.8217,-97.2040,0.0,4.7,186.0,5.9,'11111222,11111222,11111222' 
TCOON,ioos:station:TCOON:006:1,2008-08-02T15:00:00Z,27.8217,-97.2040,0.0,5.0,155.0,6.2,'11111222,11111222,11111222' 
TCOON,ioos:station:TCOON:006:1,2008-08-02T16:00:00Z,27.8217,-97.2040,0.0,4.2,140.0,5.3,'11111222,11111222,11111222' 
TCOON,ioos:station:TCOON:006:1,2008-08-02T17:00:00Z,27.8217,-97.2040,0.0,4.5,144.0,6.4,'11111222,11111222,11111222' 
TCOON,ioos:station:TCOON:006:1,2008-08-02T18:00:00Z,27.8217,-97.2040,0.0,5.1,134.0,6.7,'11111222,11111222,11111222' 
TCOON,ioos:station:TCOON:006:1,2008-08-02T19:00:00Z,27.8217,-97.2040,0.0,5.8,126.0,7.2,'11111222,11111222,11111222' 
TCOON,ioos:station:TCOON:006:1,2008-08-02T20:00:00Z,27.8217,-97.2040,0.0,6.1,131.0,7.5,'11111222,11111222,11111222' 
TCOON,ioos:station:TCOON:006:1,2008-08-02T21:00:00Z,27.8217,-97.2040,0.0,6.0,126.0,8.3,'11111222,11111222,11111222' 
TCOON,ioos:station:TCOON:006:1,2008-08-02T22:00:00Z,27.8217,-97.2040,0.0,5.9,138.0,9.0,'11111222,11111222,11111222' 
TCOON,ioos:station:TCOON:006:1,2008-08-02T23:00:00Z,27.8217,-97.2040,0.0,6.9,132.0,9.0,'11111222,11111222,11111222' 
TCOON,ioos:station:TCOON:006:1,2008-08-03T00:00:00Z,27.8217,-97.2040,0.0,5.2,141.0,7.3,'11111222,11111222,11111222' 
TCOON,ioos:station:TCOON:006:1,2008-08-03T01:00:00Z,27.8217,-97.2040,0.0,4.7,143.0,7.6,'11111222,11111222,11111222' 
TCOON,ioos:station:TCOON:006:1,2008-08-03T02:00:00Z,27.8217,-97.2040,0.0,5.1,155.0,7.9,'11111222,11111222,11111222' 
TCOON,ioos:station:TCOON:006:1,2008-08-03T03:00:00Z,27.8217,-97.2040,0.0,6.4,160.0,7.4,'11111222,11111222,11111222' 
TCOON,ioos:station:TCOON:006:1,2008-08-03T04:00:00Z,27.8217,-97.2040,0.0,5.5,158.0,7.1,'11111222,11111222,11111222' 
TCOON,ioos:station:TCOON:006:1,2008-08-03T05:00:00Z,27.8217,-97.2040,0.0,6.1,167.0,7.7,'11111222,11111222,11111222' 
TCOON,ioos:station:TCOON:006:1,2008-08-03T06:00:00Z,27.8217,-97.2040,0.0,5.9,168.0,7.4,'11111222,11111222,11111222' 
TCOON,ioos:station:TCOON:006:1,2008-08-03T07:00:00Z,27.8217,-97.2040,0.0,7.0,176.0,8.8,'11111222,11111222,11111222' 
TCOON,ioos:station:TCOON:006:1,2008-08-03T08:00:00Z,27.8217,-97.2040,0.0,5.9,175.0,7.2,'11111222,11111222,11111222' 
TCOON,ioos:station:TCOON:006:1,2008-08-03T09:00:00Z,27.8217,-97.2040,0.0,6.2,189.0,7.4,'11111222,11111222,11111222' 
TCOON,ioos:station:TCOON:006:1,2008-08-03T10:00:00Z,27.8217,-97.2040,0.0,4.8,187.0,6.4,'11111222,11111222,11111222' 
TCOON,ioos:station:TCOON:006:1,2008-08-03T11:00:00Z,27.8217,-97.2040,0.0,5.7,187.0,6.9,'11111222,11111222,11111222' 
TCOON,ioos:station:TCOON:006:1,2008-08-03T12:00:00Z,27.8217,-97.2040,0.0,4.7,201.0,5.6,'11111222,11111222,11111222' 
TCOON,ioos:station:TCOON:006:1,2008-08-03T13:00:00Z,27.8217,-97.2040,0.0,1.7,177.0,2.8,'11111222,11111222,11111222' 
TCOON,ioos:station:TCOON:006:1,2008-08-03T14:00:00Z,27.8217,-97.2040,0.0,3.0,168.0,3.7,'11111222,11111222,11111222' 
TCOON,ioos:station:TCOON:006:1,2008-08-03T15:00:00Z,27.8217,-97.2040,0.0,1.7,152.0,3.2,'11111222,11111222,11111222' 
TCOON,ioos:station:TCOON:006:1,2008-08-03T16:00:00Z,27.8217,-97.2040,0.0,4.9,171.0,6.1,'11111222,11111222,11111222' 
TCOON,ioos:station:TCOON:006:1,2008-08-03T17:00:00Z,27.8217,-97.2040,0.0,3.9,148.0,5.1,'11111222,11111222,11111222' 
TCOON,ioos:station:TCOON:006:1,2008-08-03T18:00:00Z,27.8217,-97.2040,0.0,4.8,151.0,5.5,'11111222,11111222,11111222' 
TCOON,ioos:station:TCOON:006:1,2008-08-03T19:00:00Z,27.8217,-97.2040,0.0,4.5,149.0,5.3,'11111222,11111222,11111222' 
TCOON,ioos:station:TCOON:006:1,2008-08-03T20:00:00Z,27.8217,-97.2040,0.0,4.6,133.0,5.8,'11111222,11111222,11111222' 
TCOON,ioos:station:TCOON:006:1,2008-08-03T21:00:00Z,27.8217,-97.2040,0.0,5.3,126.0,6.2,'11111222,11111222,11111222' 
TCOON,ioos:station:TCOON:006:1,2008-08-03T22:00:00Z,27.8217,-97.2040,0.0,4.4,137.0,5.8,'11111222,11111222,11111222' 
TCOON,ioos:station:TCOON:006:1,2008-08-03T23:00:00Z,27.8217,-97.2040,0.0,4.5,132.0,6.0,'11111222,11111222,11111222' 
TCOON,ioos:station:TCOON:006:1,2008-08-04T00:00:00Z,27.8217,-97.2040,0.0,4.1,141.0,5.8,'11111222,11111222,11111222' 
TCOON,ioos:station:TCOON:006:1,2008-08-04T01:00:00Z,27.8217,-97.2040,0.0,5.0,140.0,6.5,'11111222,11111222,11111222' 
TCOON,ioos:station:TCOON:006:1,2008-08-04T02:00:00Z,27.8217,-97.2040,0.0,4.1,140.0,6.1,'11111222,11111222,11111222' 
TCOON,ioos:station:TCOON:006:1,2008-08-04T03:00:00Z,27.8217,-97.2040,0.0,3.1,136.0,4.9,'11111222,11111222,11111222' 
TCOON,ioos:station:TCOON:006:1,2008-08-04T04:00:00Z,27.8217,-97.2040,0.0,3.0,146.0,4.2,'11111222,11111222,11111222' 
TCOON,ioos:station:TCOON:006:1,2008-08-04T05:00:00Z,27.8217,-97.2040,0.0,3.0,160.0,4.3,'11111222,11111222,11111222' 
TCOON,ioos:station:TCOON:006:1,2008-08-04T06:00:00Z,27.8217,-97.2040,0.0,3.4,189.0,4.3,'11111222,11111222,11111222' 
TCOON,ioos:station:TCOON:006:1,2008-08-04T07:00:00Z,27.8217,-97.2040,0.0,3.2,196.0,4.5,'11111222,11111222,11111222' 
TCOON,ioos:station:TCOON:006:1,2008-08-04T08:00:00Z,27.8217,-97.2040,0.0,3.3,205.0,4.2,'11111222,11111222,11111222' 
TCOON,ioos:station:TCOON:006:1,2008-08-04T09:00:00Z,27.8217,-97.2040,0.0,3.2,207.0,4.2,'11111222,11111222,11111222' 
TCOON,ioos:station:TCOON:006:1,2008-08-04T10:00:00Z,27.8217,-97.2040,0.0,3.2,242.0,3.9,'11111222,11111222,11111222' 
TCOON,ioos:station:TCOON:006:1,2008-08-04T11:00:00Z,27.8217,-97.2040,0.0,3.0,212.0,4.0,'11111222,11111222,11111222' 
TCOON,ioos:station:TCOON:006:1,2008-08-04T12:00:00Z,27.8217,-97.2040,0.0,3.9,223.0,4.2,'11111222,11111222,11111222' 
TCOON,ioos:station:TCOON:006:1,2008-08-04T13:00:00Z,27.8217,-97.2040,0.0,3.8,214.0,5.0,'11111222,11111222,11111222' 
TCOON,ioos:station:TCOON:006:1,2008-08-04T14:00:00Z,27.8217,-97.2040,0.0,2.2,223.0,3.2,'11111222,11111222,11111222' 
TCOON,ioos:station:TCOON:006:1,2008-08-04T15:00:00Z,27.8217,-97.2040,0.0,2.4,232.0,2.8,'11111222,11111222,11111222' 
TCOON,ioos:station:TCOON:006:1,2008-08-04T16:00:00Z,27.8217,-97.2040,0.0,2.5,246.0,3.4,'11111222,11111222,11111222' 
TCOON,ioos:station:TCOON:006:1,2008-08-04T17:00:00Z,27.8217,-97.2040,0.0,2.8,199.0,3.3,'11111222,11111222,11111222' 
TCOON,ioos:station:TCOON:006:1,2008-08-04T18:00:00Z,27.8217,-97.2040,0.0,2.8,157.0,3.6,'11111222,11111222,11111222' 
TCOON,ioos:station:TCOON:006:1,2008-08-04T19:00:00Z,27.8217,-97.2040,0.0,2.8,136.0,4.1,'11111222,11111222,11111222' 
TCOON,ioos:station:TCOON:006:1,2008-08-04T20:00:00Z,27.8217,-97.2040,0.0,3.6,142.0,5.0,'11111222,11111222,11111222' 
TCOON,ioos:station:TCOON:006:1,2008-08-04T21:00:00Z,27.8217,-97.2040,0.0,4.2,129.0,5.5,'11111222,11111222,11111222' 
TCOON,ioos:station:TCOON:006:1,2008-08-04T22:00:00Z,27.8217,-97.2040,0.0,3.4,135.0,5.1,'11111222,11111222,11111222' 
TCOON,ioos:station:TCOON:006:1,2008-08-04T23:00:00Z,27.8217,-97.2040,0.0,3.1,140.0,5.0,'11111222,11111222,11111222' 
TCOON,ioos:station:TCOON:006:1,2008-08-05T00:00:00Z,27.8217,-97.2040,0.0,3.4,151.0,4.6,'11111222,11111222,11111222' 
TCOON,ioos:station:TCOON:006:1,2008-08-05T01:00:00Z,27.8217,-97.2040,0.0,3.8,146.0,5.2,'11111222,11111222,11111222' 
TCOON,ioos:station:TCOON:006:1,2008-08-05T02:00:00Z,27.8217,-97.2040,0.0,3.6,156.0,4.7,'11111222,11111222,11111222' 
TCOON,ioos:station:TCOON:006:1,2008-08-05T03:00:00Z,27.8217,-97.2040,0.0,4.6,161.0,5.8,'11111222,11111222,11111222' 
TCOON,ioos:station:TCOON:006:1,2008-08-05T04:00:00Z,27.8217,-97.2040,0.0,4.8,165.0,6.0,'11111222,11111222,11111222' 
TCOON,ioos:station:TCOON:006:1,2008-08-05T05:00:00Z,27.8217,-97.2040,0.0,5.0,173.0,5.9,'11111222,11111222,11111222' 
TCOON,ioos:station:TCOON:006:1,2008-08-05T06:00:00Z,27.8217,-97.2040,0.0,3.9,184.0,5.3,'11111222,11111222,11111222' 
TCOON,ioos:station:TCOON:006:1,2008-08-05T07:00:00Z,27.8217,-97.2040,0.0,4.2,178.0,5.6,'11111222,11111222,11111222' 
TCOON,ioos:station:TCOON:006:1,2008-08-05T08:00:00Z,27.8217,-97.2040,0.0,5.2,185.0,6.3,'11111222,11111222,11111222' 
TCOON,ioos:station:TCOON:006:1,2008-08-05T09:00:00Z,27.8217,-97.2040,0.0,5.9,220.0,7.2,'11111222,11111222,11111222' 
TCOON,ioos:station:TCOON:006:1,2008-08-05T10:00:00Z,27.8217,-97.2040,0.0,5.9,217.0,6.9,'11111222,11111222,11111222' 
TCOON,ioos:station:TCOON:006:1,2008-08-05T11:00:00Z,27.8217,-97.2040,0.0,6.8,216.0,8.3,'11111222,11111222,11111222' 
TCOON,ioos:station:TCOON:006:1,2008-08-05T12:00:00Z,27.8217,-97.2040,0.0,6.3,211.0,7.5,'11111222,11111222,11111222' 
TCOON,ioos:station:TCOON:006:1,2008-08-05T13:00:00Z,27.8217,-97.2040,0.0,6.8,216.0,8.4,'11111222,11111222,11111222' 
TCOON,ioos:station:TCOON:006:1,2008-08-05T14:00:00Z,27.8217,-97.2040,0.0,5.6,227.0,7.1,'11111222,11111222,11111222' 
TCOON,ioos:station:TCOON:006:1,2008-08-05T15:00:00Z,27.8217,-97.2040,0.0,5.0,222.0,5.6,'11111222,11111222,11111222' 
TCOON,ioos:station:TCOON:006:1,2008-08-05T16:00:00Z,27.8217,-97.2040,0.0,3.5,199.0,4.8,'11111222,11111222,11111222' 
TCOON,ioos:station:TCOON:006:1,2008-08-05T17:00:00Z,27.8217,-97.2040,0.0,5.1,172.0,5.9,'11111222,11111222,11111222' 
TCOON,ioos:station:TCOON:006:1,2008-08-05T18:00:00Z,27.8217,-97.2040,0.0,4.9,148.0,6.4,'11111222,11111222,11111222' 
TCOON,ioos:station:TCOON:006:1,2008-08-05T19:00:00Z,27.8217,-97.2040,0.0,8.4,159.0,10.4,'11111222,11111222,11111222' 
TCOON,ioos:station:TCOON:006:1,2008-08-05T20:00:00Z,27.8217,-97.2040,0.0,8.5,161.0,11.1,'11111222,11111222,11111222' 
TCOON,ioos:station:TCOON:006:1,2008-08-05T21:00:00Z,27.8217,-97.2040,0.0,7.6,154.0,10.2,'11111222,11111222,11111222' 
TCOON,ioos:station:TCOON:006:1,2008-08-05T22:00:00Z,27.8217,-97.2040,0.0,3.6,63.0,5.7,'11111222,11111222,11111222' 
TCOON,ioos:station:TCOON:006:1,2008-08-05T23:00:00Z,27.8217,-97.2040,0.0,2.0,356.0,4.9,'11111222,11111222,11111222' 
TCOON,ioos:station:TCOON:006:1,2008-08-06T00:00:00Z,27.8217,-97.2040,0.0,1.0,74.0,1.5,'11111222,11111222,11111222' 
TCOON,ioos:station:TCOON:006:1,2008-08-06T01:00:00Z,27.8217,-97.2040,0.0,4.1,145.0,5.4,'11111222,11111222,11111222' 
TCOON,ioos:station:TCOON:006:1,2008-08-06T02:00:00Z,27.8217,-97.2040,0.0,4.2,151.0,6.0,'11111222,11111222,11111222' 
TCOON,ioos:station:TCOON:006:1,2008-08-06T03:00:00Z,27.8217,-97.2040,0.0,4.5,139.0,8.5,'11111222,11111222,11111222' 
TCOON,ioos:station:TCOON:006:1,2008-08-06T04:00:00Z,27.8217,-97.2040,0.0,6.7,157.0,8.9,'11111222,11111222,11111222' 
TCOON,ioos:station:TCOON:006:1,2008-08-06T05:00:00Z,27.8217,-97.2040,0.0,7.7,168.0,11.1,'11111222,11111222,11111222' 
TCOON,ioos:station:TCOON:006:1,2008-08-06T06:00:00Z,27.8217,-97.2040,0.0,8.7,174.0,10.4,'11111222,11111222,11111222' 
TCOON,ioos:station:TCOON:006:1,2008-08-06T07:00:00Z,27.8217,-97.2040,0.0,7.8,165.0,10.1,'11111222,11111222,11111222' 
TCOON,ioos:station:TCOON:006:1,2008-08-06T08:00:00Z,27.8217,-97.2040,0.0,7.3,166.0,9.9,'11111222,11111222,11111222' 
TCOON,ioos:station:TCOON:006:1,2008-08-06T09:00:00Z,27.8217,-97.2040,0.0,6.9,161.0,8.8,'11111222,11111222,11111222' 
TCOON,ioos:station:TCOON:006:1,2008-08-06T10:00:00Z,27.8217,-97.2040,0.0,6.5,167.0,9.1,'11111222,11111222,11111222' 
TCOON,ioos:station:TCOON:006:1,2008-08-06T11:00:00Z,27.8217,-97.2040,0.0,6.1,165.0,8.2,'11111222,11111222,11111222' 
TCOON,ioos:station:TCOON:006:1,2008-08-06T12:00:00Z,27.8217,-97.2040,0.0,5.0,160.0,7.5,'11111222,11111222,11111222' 
TCOON,ioos:station:TCOON:006:1,2008-08-06T13:00:00Z,27.8217,-97.2040,0.0,5.8,173.0,7.1,'11111222,11111222,11111222' 
TCOON,ioos:station:TCOON:006:1,2008-08-06T14:00:00Z,27.8217,-97.2040,0.0,6.6,164.0,7.8,'11111222,11111222,11111222' 
TCOON,ioos:station:TCOON:006:1,2008-08-06T15:00:00Z,27.8217,-97.2040,0.0,7.0,162.0,8.6,'11111222,11111222,11111222' 
TCOON,ioos:station:TCOON:006:1,2008-08-06T16:00:00Z,27.8217,-97.2040,0.0,6.9,165.0,8.5,'11111222,11111222,11111222' 
TCOON,ioos:station:TCOON:006:1,2008-08-06T17:00:00Z,27.8217,-97.2040,0.0,6.1,152.0,8.3,'11111222,11111222,11111222' 
TCOON,ioos:station:TCOON:006:1,2008-08-06T18:00:00Z,27.8217,-97.2040,0.0,5.9,134.0,7.5,'11111222,11111222,11111222' 
TCOON,ioos:station:TCOON:006:1,2008-08-06T19:00:00Z,27.8217,-97.2040,0.0,5.6,136.0,7.0,'11111222,11111222,11111222' 
TCOON,ioos:station:TCOON:006:1,2008-08-06T20:00:00Z,27.8217,-97.2040,0.0,6.3,132.0,9.1,'11111222,11111222,11111222' 
TCOON,ioos:station:TCOON:006:1,2008-08-06T21:00:00Z,27.8217,-97.2040,0.0,6.6,128.0,8.9,'11111222,11111222,11111222' 
TCOON,ioos:station:TCOON:006:1,2008-08-06T22:00:00Z,27.8217,-97.2040,0.0,6.1,117.0,8.6,'11111222,11111222,11111222' 
TCOON,ioos:station:TCOON:006:1,2008-08-06T23:00:00Z,27.8217,-97.2040,0.0,6.5,124.0,7.9,'11111222,11111222,11111222' 
TCOON,ioos:station:TCOON:006:1,2008-08-07T00:00:00Z,27.8217,-97.2040,0.0,7.4,123.0,9.3,'11111222,11111222,11111222' 
TCOON,ioos:station:TCOON:006:1,2008-08-07T01:00:00Z,27.8217,-97.2040,0.0,7.0,136.0,8.7,'11111222,11111222,11111222' 
TCOON,ioos:station:TCOON:006:1,2008-08-07T02:00:00Z,27.8217,-97.2040,0.0,5.3,138.0,8.0,'11111222,11111222,11111222' 
TCOON,ioos:station:TCOON:006:1,2008-08-07T03:00:00Z,27.8217,-97.2040,0.0,5.9,142.0,8.0,'11111222,11111222,11111222' 
TCOON,ioos:station:TCOON:006:1,2008-08-07T04:00:00Z,27.8217,-97.2040,0.0,5.4,141.0,7.0,'11111222,11111222,11111222' 
TCOON,ioos:station:TCOON:006:1,2008-08-07T05:00:00Z,27.8217,-97.2040,0.0,6.7,147.0,8.2,'11111222,11111222,11111222' 
TCOON,ioos:station:TCOON:006:1,2008-08-07T06:00:00Z,27.8217,-97.2040,0.0,5.1,156.0,7.4,'11111222,11111222,11111222' 
TCOON,ioos:station:TCOON:006:1,2008-08-07T07:00:00Z,27.8217,-97.2040,0.0,5.1,148.0,6.6,'11111222,11111222,11111222' 
TCOON,ioos:station:TCOON:006:1,2008-08-07T08:00:00Z,27.8217,-97.2040,0.0,5.6,159.0,7.0,'11111222,11111222,11111222' 
TCOON,ioos:station:TCOON:006:1,2008-08-07T09:00:00Z,27.8217,-97.2040,0.0,6.3,161.0,7.5,'11111222,11111222,11111222' 
TCOON,ioos:station:TCOON:006:1,2008-08-07T10:00:00Z,27.8217,-97.2040,0.0,5.3,170.0,6.2,'11111222,11111222,11111222' 
TCOON,ioos:station:TCOON:006:1,2008-08-07T11:00:00Z,27.8217,-97.2040,0.0,3.5,157.0,4.5,'11111222,11111222,11111222' 
TCOON,ioos:station:TCOON:006:1,2008-08-07T12:00:00Z,27.8217,-97.2040,0.0,3.9,166.0,5.4,'11111222,11111222,11111222' 
TCOON,ioos:station:TCOON:006:1,2008-08-07T13:00:00Z,27.8217,-97.2040,0.0,3.1,155.0,4.7,'11111222,11111222,11111222' 
TCOON,ioos:station:TCOON:006:1,2008-08-07T14:00:00Z,27.8217,-97.2040,0.0,3.3,137.0,4.2,'11111222,11111222,11111222' 
TCOON,ioos:station:TCOON:006:1,2008-08-07T15:00:00Z,27.8217,-97.2040,0.0,3.4,130.0,4.5,'11111222,11111222,11111222' 
TCOON,ioos:station:TCOON:006:1,2008-08-07T16:00:00Z,27.8217,-97.2040,0.0,3.6,129.0,5.1,'11111222,11111222,11111222' 
TCOON,ioos:station:TCOON:006:1,2008-08-07T17:00:00Z,27.8217,-97.2040,0.0,3.6,147.0,5.8,'11111222,11111222,11111222' 
TCOON,ioos:station:TCOON:006:1,2008-08-07T18:00:00Z,27.8217,-97.2040,0.0,5.0,123.0,6.2,'11111222,11111222,11111222' 
TCOON,ioos:station:TCOON:006:1,2008-08-07T19:00:00Z,27.8217,-97.2040,0.0,5.3,119.0,6.4,'11111222,11111222,11111222' 
TCOON,ioos:station:TCOON:006:1,2008-08-07T20:00:00Z,27.8217,-97.2040,0.0,5.4,127.0,6.8,'11111222,11111222,11111222' 
TCOON,ioos:station:TCOON:006:1,2008-08-07T21:00:00Z,27.8217,-97.2040,0.0,6.0,123.0,7.1,'11111222,11111222,11111222' 
TCOON,ioos:station:TCOON:006:1,2008-08-07T22:00:00Z,27.8217,-97.2040,0.0,5.5,117.0,7.3,'11111222,11111222,11111222' 
TCOON,ioos:station:TCOON:006:1,2008-08-07T23:00:00Z,27.8217,-97.2040,0.0,6.0,122.0,7.6,'11111222,11111222,11111222' 
TCOON,ioos:station:TCOON:006:1,2008-08-08T00:00:00Z,27.8217,-97.2040,0.0,6.3,124.0,8.4,'11111222,11111222,11111222' 
TCOON,ioos:station:TCOON:006:1,2008-08-08T01:00:00Z,27.8217,-97.2040,0.0,4.6,132.0,6.8,'11111222,11111222,11111222' 
TCOON,ioos:station:TCOON:006:1,2008-08-08T02:00:00Z,27.8217,-97.2040,0.0,5.1,130.0,6.9,'11111222,11111222,11111222' 
TCOON,ioos:station:TCOON:006:1,2008-08-08T03:00:00Z,27.8217,-97.2040,0.0,4.9,134.0,7.7,'11111222,11111222,11111222' 
TCOON,ioos:station:TCOON:006:1,2008-08-08T04:00:00Z,27.8217,-97.2040,0.0,5.2,147.0,6.3,'11111222,11111222,11111222' 
TCOON,ioos:station:TCOON:006:1,2008-08-08T05:00:00Z,27.8217,-97.2040,0.0,5.0,131.0,6.8,'11111222,11111222,11111222' 
TCOON,ioos:station:TCOON:006:1,2008-08-08T06:00:00Z,27.8217,-97.2040,0.0,4.6,139.0,6.6,'11111222,11111222,11111222' 
TCOON,ioos:station:TCOON:006:1,2008-08-08T07:00:00Z,27.8217,-97.2040,0.0,5.0,152.0,6.3,'11111222,11111222,11111222' 
TCOON,ioos:station:TCOON:006:1,2008-08-08T08:00:00Z,27.8217,-97.2040,0.0,5.2,155.0,7.3,'11111222,11111222,11111222' 
TCOON,ioos:station:TCOON:006:1,2008-08-08T09:00:00Z,27.8217,-97.2040,0.0,5.3,164.0,6.4,'11111222,11111222,11111222' 
TCOON,ioos:station:TCOON:006:1,2008-08-08T10:00:00Z,27.8217,-97.2040,0.0,6.1,173.0,7.6,'11111222,11111222,11111222' 
TCOON,ioos:station:TCOON:006:1,2008-08-08T11:00:00Z,27.8217,-97.2040,0.0,5.1,183.0,7.0,'11111222,11111222,11111222' 
TCOON,ioos:station:TCOON:006:1,2008-08-08T12:00:00Z,27.8217,-97.2040,0.0,5.4,196.0,6.7,'11111222,11111222,11111222' 
TCOON,ioos:station:TCOON:006:1,2008-08-08T13:00:00Z,27.8217,-97.2040,0.0,5.9,203.0,7.1,'11111222,11111222,11111222' 
TCOON,ioos:station:TCOON:006:1,2008-08-08T14:00:00Z,27.8217,-97.2040,0.0,3.9,192.0,5.1,'11111222,11111222,11111222' 
TCOON,ioos:station:TCOON:006:1,2008-08-08T15:00:00Z,27.8217,-97.2040,0.0,3.3,166.0,4.3,'11111222,11111222,11111222' 
TCOON,ioos:station:TCOON:006:1,2008-08-08T16:00:00Z,27.8217,-97.2040,0.0,2.8,150.0,3.7,'11111222,11111222,11111222' 
TCOON,ioos:station:TCOON:006:1,2008-08-08T17:00:00Z,27.8217,-97.2040,0.0,3.4,130.0,4.5,'11111222,11111222,11111222' 
TCOON,ioos:station:TCOON:006:1,2008-08-08T18:00:00Z,27.8217,-97.2040,0.0,4.1,117.0,5.7,'11111222,11111222,11111222' 
TCOON,ioos:station:TCOON:006:1,2008-08-08T19:00:00Z,27.8217,-97.2040,0.0,4.6,114.0,6.6,'11111222,11111222,11111222' 
TCOON,ioos:station:TCOON:006:1,2008-08-08T20:00:00Z,27.8217,-97.2040,0.0,5.8,116.0,6.9,'11111222,11111222,11111222' 
TCOON,ioos:station:TCOON:006:1,2008-08-08T21:00:00Z,27.8217,-97.2040,0.0,4.9,108.0,7.9,'11111222,11111222,11111222' 
TCOON,ioos:station:TCOON:006:1,2008-08-08T22:00:00Z,27.8217,-97.2040,0.0,5.3,94.0,7.4,'11111222,11111222,11111222' 
TCOON,ioos:station:TCOON:006:1,2008-08-08T23:00:00Z,27.8217,-97.2040,0.0,4.3,105.0,7.2,'11111222,11111222,11111222' 
TCOON,ioos:station:TCOON:006:1,2008-08-09T00:00:00Z,27.8217,-97.2040,0.0,5.4,106.0,7.3,'11111222,11111222,11111222' 
TCOON,ioos:station:TCOON:006:1,2008-08-09T01:00:00Z,27.8217,-97.2040,0.0,4.6,132.0,6.7,'11111222,11111222,11111222' 
TCOON,ioos:station:TCOON:006:1,2008-08-09T02:00:00Z,27.8217,-97.2040,0.0,5.1,141.0,8.0,'11111222,11111222,11111222' 
TCOON,ioos:station:TCOON:006:1,2008-08-09T03:00:00Z,27.8217,-97.2040,0.0,5.2,154.0,8.3,'11111222,11111222,11111222' 
TCOON,ioos:station:TCOON:006:1,2008-08-09T04:00:00Z,27.8217,-97.2040,0.0,6.1,163.0,8.2,'11111222,11111222,11111222' 
TCOON,ioos:station:TCOON:006:1,2008-08-09T05:00:00Z,27.8217,-97.2040,0.0,5.1,159.0,6.6,'11111222,11111222,11111222' 
TCOON,ioos:station:TCOON:006:1,2008-08-09T06:00:00Z,27.8217,-97.2040,0.0,5.8,170.0,7.3,'11111222,11111222,11111222' 
TCOON,ioos:station:TCOON:006:1,2008-08-09T07:00:00Z,27.8217,-97.2040,0.0,6.0,174.0,7.5,'11111222,11111222,11111222' 
TCOON,ioos:station:TCOON:006:1,2008-08-09T08:00:00Z,27.8217,-97.2040,0.0,5.1,176.0,6.8,'11111222,11111222,11111222' 
TCOON,ioos:station:TCOON:006:1,2008-08-09T09:00:00Z,27.8217,-97.2040,0.0,6.1,174.0,7.4,'11111222,11111222,11111222' 
TCOON,ioos:station:TCOON:006:1,2008-08-09T10:00:00Z,27.8217,-97.2040,0.0,6.2,171.0,7.0,'11111222,11111222,11111222' 
TCOON,ioos:station:TCOON:006:1,2008-08-09T11:00:00Z,27.8217,-97.2040,0.0,5.2,187.0,6.3,'11111222,11111222,11111222' 
TCOON,ioos:station:TCOON:006:1,2008-08-09T12:00:00Z,27.8217,-97.2040,0.0,3.7,213.0,4.3,'11111222,11111222,11111222' 